星链-32297 (STARLINK-32297)

导读

STARLINK-32297是美国SpaceX星链(Starlink)星座的一员,于2024年10月15日发射升空,归属星链低轨互联网卫星项目。星链计划旨在搭建全球覆盖的卫星互联网通信系统,该卫星同批次卫星多采用Starlink v2.0 mini平台,运行于近地轨道,为全球用户提供宽带互联网接入服务,是SpaceX持续扩充星链星座部署的组成部分,推动全球无缝网络覆盖建设。

基本信息
目录编号:
61521
目录名称:
STARLINK-32297
国际标识:
2024-183N
轨道中心:
EARTH
卫星名称:
星链-32297
卫星全名:
星链-32297 (STARLINK-32297)
卫星状态:
在轨 (已飞行697 天)
发射日期:
2024-10-15 UTC
国别 :
美国 (US)
星等 :
--
该卫星已列入 空间交会检测服务 Space Conjunction Data Service (SCDS) ,当前飞行风险评估等级: 无高风险
轨道信息
数据来源 国际轨道数据
星历时间: 2026-09-11T21:06:08+0800
15小时前
查看轨道信息
半长轴: 6840.818km
偏心率: 0.000112
轨道倾角: 53.161°
近地点辐角 57.702°
升交点赤经 357.332°
平近点角 302.409°
近地点: 461.914km
远地点: 463.448km
周期: 93.847分钟
每日圈数: 15.344078
详细信息
固有亮度:
5
最大亮度:
2.5
卫星平台:
Starlink V1.0
覆盖范围:
全球
运营商:
太空探索技术公司
运营商所在国:
美国
制造商(研发单位):
太空探索技术公司
制造商所在国:
美国
使用方式:
暂无
卫星简介
Starlink 计划是 SpaceX 推出的全球卫星互联网项目,通过发射低轨道卫星,为全球尤其是偏远地区提供高速、低延迟的互联网服务。自 2019 年起,Starlink 已部署数千颗卫星,旨在缩小全球数字鸿沟,推动互联网普及。该项目还为军事、航空等行业提供通信支持,带来广泛经济效益。
2D轨道图
3D轨道图
轨道高度分析图
轨道倾角分析图
轨道综合分析图
查看轨道综合分析图
交会数据列表
事件ID 空间交会对象 最接近时刻(TCA) 交会距离 交会风险概率(CRP) 交会风险指数(CRI) 操作
CDM_260913-212805-172506-152121
2026-09-13T
21:28:41+0000
2.605 km
极远距离
1.43594E-6 低风险 0.38
CDM_260912-031605-390006-152121
2026-09-12T
03:16:09+0000
2.835 km
极远距离
1.267806E-6 低风险 0.37
CDM_260914-041605-386706-152121
2026-09-14T
04:16:20+0000
2.793 km
极远距离
1.266848E-6 低风险 0.37
CDM_260912-155505-285606-152121
2026-09-12T
15:55:06+0000
2.679 km
极远距离
1.186826E-6 低风险 0.36
与全量物体交会距离演化趋势
与全量物体交会风险概率演化趋势